TimeEDT,TemperatureF,Dew PointF,Humidity,Sea Level PressureIn,VisibilityMPH,Wind Direction,Wind SpeedMPH,Gust SpeedMPH,PrecipitationIn,Events,Conditions,WindDirDegrees,DateUTC
12:15 AM,55.4,50.0,82,30.11,10.0,South,5.8,-,N/A,,Clear,180,2012-10-05 04:15:00
12:35 AM,55.4,50.0,82,30.10,10.0,South,5.8,-,N/A,,Clear,180,2012-10-05 04:35:00
12:55 AM,55.4,50.0,82,30.10,10.0,SSW,6.9,-,N/A,,Clear,200,2012-10-05 04:55:00
1:15 AM,55.4,50.0,82,30.10,10.0,South,5.8,-,N/A,,Clear,190,2012-10-05 05:15:00
1:35 AM,53.6,50.0,88,30.09,10.0,South,6.9,-,N/A,,Clear,190,2012-10-05 05:35:00
1:55 AM,53.6,50.0,88,30.09,10.0,South,5.8,-,N/A,,Clear,190,2012-10-05 05:55:00
2:15 AM,53.6,50.0,88,30.09,10.0,South,6.9,-,N/A,,Clear,190,2012-10-05 06:15:00
2:35 AM,53.6,50.0,88,30.09,10.0,South,8.1,-,N/A,,Clear,190,2012-10-05 06:35:00
2:55 AM,53.6,50.0,88,30.09,10.0,South,6.9,-,N/A,,Clear,190,2012-10-05 06:55:00
3:15 AM,53.6,50.0,88,30.09,10.0,South,8.1,-,N/A,,Partly Cloudy,190,2012-10-05 07:15:00
3:35 AM,53.6,50.0,88,30.08,10.0,South,6.9,-,N/A,,Mostly Cloudy,190,2012-10-05 07:35:00
3:55 AM,53.6,50.0,88,30.08,10.0,South,6.9,-,N/A,,Overcast,190,2012-10-05 07:55:00
4:15 AM,53.6,50.0,88,30.08,10.0,South,6.9,-,N/A,,Mostly Cloudy,190,2012-10-05 08:15:00
4:35 AM,55.4,51.8,88,30.07,10.0,SSW,6.9,-,N/A,,Mostly Cloudy,200,2012-10-05 08:35:00
4:55 AM,55.4,51.8,88,30.07,10.0,South,5.8,-,N/A,,Mostly Cloudy,190,2012-10-05 08:55:00
5:15 AM,55.4,51.8,88,30.07,10.0,South,6.9,-,N/A,,Overcast,190,2012-10-05 09:15:00
5:35 AM,53.6,50.0,88,30.07,10.0,South,5.8,-,N/A,,Scattered Clouds,190,2012-10-05 09:35:00
5:55 AM,53.6,50.0,88,30.07,10.0,South,5.8,-,N/A,,Clear,190,2012-10-05 09:55:00
6:15 AM,55.4,51.8,88,30.07,10.0,SSW,6.9,-,N/A,,Partly Cloudy,200,2012-10-05 10:15:00
6:35 AM,55.4,51.8,88,30.07,10.0,South,6.9,-,N/A,,Mostly Cloudy,180,2012-10-05 10:35:00
6:55 AM,55.4,51.8,88,30.07,10.0,SSW,9.2,-,N/A,,Overcast,200,2012-10-05 10:55:00
7:15 AM,57.2,51.8,82,30.07,10.0,SSW,6.9,-,N/A,,Overcast,210,2012-10-05 11:15:00
7:35 AM,57.2,51.8,82,30.07,10.0,SW,8.1,-,N/A,,Overcast,220,2012-10-05 11:35:00
7:55 AM,57.2,51.8,82,30.07,10.0,SSW,6.9,-,N/A,,Overcast,210,2012-10-05 11:55:00
8:15 AM,57.2,51.8,82,30.07,10.0,SSW,8.1,-,N/A,,Overcast,200,2012-10-05 12:15:00
8:35 AM,57.2,51.8,82,30.07,10.0,SW,4.6,-,N/A,,Mostly Cloudy,220,2012-10-05 12:35:00
8:55 AM,57.2,53.6,88,30.07,10.0,SW,6.9,-,N/A,,Overcast,220,2012-10-05 12:55:00
9:15 AM,59.0,53.6,82,30.07,10.0,SSW,6.9,-,N/A,,Overcast,200,2012-10-05 13:15:00
9:35 AM,59.0,53.6,82,30.07,10.0,SW,6.9,-,N/A,,Overcast,220,2012-10-05 13:35:00
9:55 AM,59.0,53.6,82,30.07,10.0,SSW,6.9,-,N/A,,Overcast,210,2012-10-05 13:55:00
10:15 AM,60.8,53.6,77,30.06,10.0,SSW,10.4,-,N/A,,Overcast,210,2012-10-05 14:15:00
10:35 AM,60.8,53.6,77,30.06,10.0,SSW,11.5,18.4,N/A,,Overcast,210,2012-10-05 14:35:00
10:55 AM,60.8,53.6,77,30.06,10.0,SSW,8.1,18.4,N/A,,Overcast,210,2012-10-05 14:55:00
11:15 AM,62.6,55.4,77,30.05,10.0,SW,11.5,16.1,N/A,,Mostly Cloudy,220,2012-10-05 15:15:00
11:35 AM,62.6,55.4,77,30.05,10.0,SSW,10.4,17.3,N/A,,Mostly Cloudy,200,2012-10-05 15:35:00
11:55 AM,62.6,55.4,77,30.04,10.0,SSW,8.1,-,N/A,,Overcast,210,2012-10-05 15:55:00
12:35 PM,64.4,55.4,73,30.04,10.0,SW,13.8,18.4,N/A,,Overcast,230,2012-10-05 16:35:00
1:15 PM,62.6,55.4,77,30.04,10.0,SW,10.4,-,N/A,,Overcast,230,2012-10-05 17:15:00
1:35 PM,62.6,55.4,77,30.03,10.0,SSW,12.7,18.4,N/A,,Overcast,210,2012-10-05 17:35:00
1:55 PM,64.4,55.4,73,30.02,10.0,SSW,10.4,-,N/A,,Mostly Cloudy,210,2012-10-05 17:55:00
2:35 PM,62.6,55.4,77,30.02,10.0,WSW,10.4,17.3,N/A,,Overcast,240,2012-10-05 18:35:00
2:55 PM,62.6,55.4,77,30.02,10.0,WSW,10.4,-,N/A,,Overcast,240,2012-10-05 18:55:00
3:15 PM,62.6,53.6,72,30.02,10.0,SW,13.8,-,N/A,,Overcast,230,2012-10-05 19:15:00
3:35 PM,62.6,55.4,77,30.01,10.0,WSW,10.4,-,N/A,,Overcast,250,2012-10-05 19:35:00
3:55 PM,60.8,55.4,82,30.01,10.0,WSW,10.4,-,N/A,,Overcast,240,2012-10-05 19:55:00
4:15 PM,60.8,55.4,82,30.01,6.0,WSW,9.2,-,0.02,,Overcast,240,2012-10-05 20:15:00
4:35 PM,59.0,55.4,88,30.01,4.0,SW,10.4,-,0.02,,Overcast,230,2012-10-05 20:35:00
4:55 PM,59.0,55.4,88,30.00,5.0,SSW,8.1,-,0.04,,Overcast,210,2012-10-05 20:55:00
5:15 PM,59.0,55.4,88,29.99,7.0,SW,9.2,-,N/A,,Overcast,220,2012-10-05 21:15:00
5:35 PM,59.0,55.4,88,29.98,9.0,SSW,9.2,-,N/A,,Mostly Cloudy,210,2012-10-05 21:35:00
5:55 PM,59.0,55.4,88,29.98,9.0,SW,10.4,-,N/A,,Overcast,220,2012-10-05 21:55:00
6:15 PM,57.2,55.4,94,29.97,10.0,SSW,8.1,-,N/A,,Overcast,210,2012-10-05 22:15:00
6:35 PM,57.2,55.4,94,29.97,10.0,SW,10.4,-,N/A,,Overcast,220,2012-10-05 22:35:00
7:15 PM,57.2,55.4,94,29.97,10.0,SW,9.2,-,N/A,,Overcast,220,2012-10-05 23:15:00
7:35 PM,57.2,55.4,94,29.96,10.0,SSW,4.6,-,N/A,,Overcast,210,2012-10-05 23:35:00
7:55 PM,57.2,55.4,94,29.95,10.0,SSW,5.8,-,N/A,,Overcast,210,2012-10-05 23:55:00
8:15 PM,57.2,53.6,88,29.95,10.0,SW,6.9,-,N/A,,Overcast,230,2012-10-06 00:15:00
8:35 PM,57.2,55.4,94,29.95,10.0,South,4.6,-,N/A,,Overcast,190,2012-10-06 00:35:00
8:55 PM,57.2,55.4,94,29.94,10.0,WSW,4.6,-,N/A,,Overcast,240,2012-10-06 00:55:00
9:15 PM,57.2,55.4,94,29.95,8.0,SW,5.8,-,N/A,,Overcast,220,2012-10-06 01:15:00
9:35 PM,57.2,55.4,94,29.94,8.0,West,11.5,-,N/A,,Overcast,280,2012-10-06 01:35:00
9:55 PM,53.6,51.8,94,29.94,3.0,West,9.2,-,N/A,,Overcast,280,2012-10-06 01:55:00
10:15 PM,53.6,51.8,94,29.93,5.0,NW,9.2,-,N/A,,Overcast,320,2012-10-06 02:15:00
10:35 PM,51.8,50.0,94,29.92,3.0,West,10.4,-,N/A,,Overcast,280,2012-10-06 02:35:00
10:55 PM,51.8,48.2,88,29.91,7.0,West,8.1,-,N/A,,Overcast,280,2012-10-06 02:55:00
11:35 PM,51.8,48.2,88,29.90,7.0,West,5.8,-,0.01,,Overcast,270,2012-10-06 03:35:00
11:55 PM,51.8,48.2,88,29.91,10.0,West,8.1,-,0.01,,Overcast,270,2012-10-06 03:55:00